Temperature
16 17 17 17 14 12 14 14 14 15 14 14 15 15 14 14 14 15 14 15 15 15 15 15 15 15 15 15 15 15 15 15 14 15 15 15 15 14 14 15 15 15 14 14 15 15 15 15 15
16 16 17 16 13 13 14 14 14 14 14 14 15 14 14 13 14 14 14 15 15 15 15 15 15 15 15 15 15 15 15 14 14 14 14 15 15 15 15 14 14 14 14 14 14 14 14 14 14
16 16 17 12 12 13 15 14 14 14 14 14 13 13 13 13 13 14 14 14 15 15 15 15 14 15 15 15 15 15 14 14 14 14 14 14 14 14 14 14 14 14 14 14 14 14 14 14 14
16 16 15 12 13 13 14 14 13 13 14 14 13 12 12 13 13 14 14 14 14 14 15 15 14 14 15 14 15 14 14 14 14 14 14 14 14 14 14 14 14 14 14 14 14 14 14 14 14
16 15 12 12 13 13 13 13 14 13 13 13 13 12 12 13 13 14 14 14 14 14 14 14 14 14 14 14 14 14 14 14 14 14 14 14 14 14 14 14 14 14 14 14 14 14 13 13 14
15 12 11 12 13 13 13 13 14 13 12 12 12 11 12 12 13 13 13 14 14 14 14 14 14 14 14 14 14 14 14 14 14 14 14 14 14 14 14 14 14 13 13 13 13 13 13 13 13
13 10 11 12 12 13 13 13 13 12 12 12 13 11 11 12 13 13 13 13 13 14 14 14 14 14 14 14 14 14 14 14 14 14 14 14 14 14 14 14 14 13 13 13 13 13 13 13 13
14 10 11 11 12 13 13 13 13 13 12 12 13 12 11 12 12 13 13 13 13 13 13 14 14 13 14 14 14 14 14 14 14 14 14 14 14 14 14 14 13 13 13 13 13 13 13 13 13
13 10 10 11 12 12 12 12 12 12 12 12 12 12 12 12 12 12 13 13 13 13 13 13 13 13 13 13 13 13 13 13 13 13 13 13 13 13 13 13 13 13 13 13 13 13 13 13 13
12 10 11 11 11 12 12 12 12 12 11 11 11 12 12 12 12 12 13 13 13 13 13 13 13 13 13 13 13 13 13 13 13 13 13 13 13 13 13 13 13 13 13 12 12 13 13 13 13
10 10 10 11 12 12 11 11 11 11 10 11 12 12 12 12 12 12 12 12 12 12 12 12 13 13 13 13 13 13 13 13 13 12 12 12 13 13 12 13 12 12 12 12 12 12 12 12 12
9 9 10 11 12 12 11 11 11 11 11 12 12 12 12 12 12 12 12 12 12 12 12 12 12 12 12 12 12 12 12 12 12 12 12 12 12 12 12 12 12 12 12 12 12 12 12 12 12
9 9 10 10 11 11 10 10 10 10 11 12 12 12 12 12 12 12 12 12 11 12 12 12 12 12 12 12 12 12 12 12 12 12 12 12 12 12 12 11 11 11 11 11 11 11 11 12 12
9 9 9 10 10 10 10 9 9 10 11 11 11 11 11 11 12 11 11 11 11 11 11 12 12 11 11 11 12 11 11 11 11 11 11 11 11 11 11 11 11 11 11 11 11 11 11 11 11
9 9 9 9 9 10 10 9 8 10 10 10 10 11 11 11 11 11 11 11 11 11 11 11 11 11 11 11 11 11 11 11 11 11 11 11 11 11 11 11 11 10 10 10 10 10 10 10 10
8 8 8 9 9 9 10 9 9 9 9 9 9 10 10 10 10 11 11 11 11 11 11 11 11 11 11 11 11 10 10 10 10 10 10 10 10 10 10 10 10 10 10 10 10 10 10 10 10
7 7 7 8 8 8 8 8 8 9 8 8 8 9 9 9 10 10 10 10 10 10 10 11 11 11 10 10 10 10 10 10 10 10 10 10 10 10 10 9 9 9 9 9 9 9 9 9 9
7 7 7 7 8 7 7 7 7 7 8 7 8 8 9 9 9 10 10 10 10 10 10 10 10 10 10 10 10 10 9 9 9 9 9 9 9 9 9 9 9 9 9 9 9 9 9 9 9
7 7 7 7 7 7 6 6 7 7 7 6 7 7 8 9 9 9 9 9 9 10 10 9 9 9 9 10 10 9 9 9 9 9 9 9 9 9 9 9 9 8 8 8 8 8 8 8 8
6 6 6 6 7 7 6 6 6 6 6 7 7 7 8 8 8 9 9 9 9 9 9 9 9 9 9 9 9 9 9 9 8 8 8 8 8 8 8 8 8 8 8 8 8 8 8 7 7
6 6 6 6 6 6 6 6 6 5 5 6 7 7 8 8 8 9 9 9 9 9 9 9 9 9 9 9 8 8 8 8 8 8 8 8 8 7 7 7 7 7 7 7 7 7 7 7 7
6 6 6 6 6 5 5 5 5 5 5 5 5 6 7 8 8 8 8 8 9 9 9 9 8 8 8 8 8 8 8 8 8 8 7 7 7 7 7 7 7 7 7 7 7 7 6 6 6
5 5 5 5 5 4 4 4 5 4 5 5 5 5 6 7 8 8 8 8 8 8 8 8 8 8 8 8 8 7 7 7 7 7 7 7 7 7 7 6 6 6 6 6 6 6 6 6 6
4 4 4 3 3 4 4 4 4 3 5 5 5 5 5 6 7 7 8 8 8 8 8 8 8 7 7 7 7 7 7 7 7 7 7 7 6 6 6 6 6 6 6 6 5 5 5 5 5
4 4 3 4 3 3 3 3 4 4 4 4 4 4 5 6 6 7 7 7 7 7 7 7 7 7 7 7 7 7 6 6 6 6 6 6 6 6 6 6 6 5 5 5 5 5 5 5 4
4 4 4 4 3 3 2 3 4 3 3 3 4 4 5 5 6 6 6 6 7 7 7 7 7 7 7 6 6 6 6 6 6 5 5 5 5 5 5 5 5 5 5 5 4 4 4 4 4
3 3 3 2 2 2 3 2 3 3 3 2 3 4 4 5 5 6 6 6 6 6 6 6 6 6 6 6 6 5 5 5 5 5 5 5 5 5 5 4 4 4 4 4 4 4 4 3 3
3 2 2 2 3 4 4 3 3 4 3 2 2 2 3 4 4 5 5 5 5 5 5 6 6 5 5 5 5 5 5 4 4 4 4 4 4 4 4 4 4 4 4 4 3 3 3 3 3
2 2 2 2 2 3 3 4 3 3 2 2 2 3 3 3 4 4 4 5 5 5 5 5 5 5 5 5 4 4 4 4 4 4 4 4 3 3 3 3 3 3 3 3 3 3 2 2 2
2 2 1 2 2 1 1 3 3 2 2 2 2 3 3 3 3 3 4 4 4 4 4 4 4 4 4 4 4 4 3 3 3 3 3 3 3 3 3 3 3 3 2 2 2 2 2 2 2
Wind_Speed
8 4 2 4 5 4 1 3 2 1 1 1 2 4 6 5 4 3 1 3 3 3 4 7 10 10 11 11 12 11 11 12 12 12 12 12 12 12 12 12 12 12 12 12 12 12 12 13 13
3 2 5 5 5 2 3 3 3 2 3 3 4 4 4 2 1 3 1 1 4 5 5 7 10 11 11 11 11 11 11 12 12 12 12 11 11 11 11 12 12 12 12 12 11 11 11 11 12
2 4 4 4 4 5 4 3 3 1 2 2 3 3 3 1 1 2 1 3 5 5 6 7 11 11 11 11 11 11 11 12 12 12 12 11 11 11 11 11 11 11 11 11 11 11 10 10 10
3 5 5 4 3 4 3 2 3 3 2 3 3 3 2 1 0 1 2 4 6 5 6 8 11 11 11 11 11 11 11 11 11 11 11 11 11 11 10 10 10 10 10 10 10 10 10 9 9
4 4 4 0 3 2 2 1 3 2 2 2 3 3 1 3 3 5 4 4 6 5 6 8 11 11 11 10 11 11 11 11 11 11 11 11 10 10 10 10 10 9 9 9 8 8 8 9 8
4 4 3 4 5 2 1 1 1 2 2 2 3 3 0 1 4 4 4 5 5 6 7 8 10 11 11 11 11 11 11 11 11 10 10 10 10 10 9 9 9 9 9 9 8 8 7 7 7
4 4 4 5 3 3 2 1 2 3 2 2 3 4 1 1 2 4 5 6 6 7 7 7 8 9 10 11 11 11 10 10 10 10 10 10 9 9 9 8 8 8 8 8 8 7 7 6 6
4 5 3 3 4 3 1 2 1 2 2 1 3 5 4 4 3 5 6 6 5 6 6 6 8 8 9 10 10 11 11 11 11 11 10 10 9 9 8 8 8 7 7 7 7 7 6 6 6
3 3 4 6 6 3 1 2 1 2 3 2 1 1 2 7 7 7 6 5 4 4 4 5 6 7 8 9 9 10 10 10 10 10 10 9 9 8 8 8 8 7 7 7 7 7 6 6 6
3 4 6 4 4 3 1 2 3 3 2 1 1 2 6 8 8 8 7 6 4 3 3 3 5 6 7 7 8 8 8 8 9 8 8 8 8 7 7 7 8 7 7 7 7 7 7 6 6
2 4 2 1 1 2 1 1 1 4 2 4 5 6 7 8 8 7 7 6 5 4 3 2 3 5 6 6 6 6 6 7 7 7 7 7 7 7 7 6 6 6 6 7 7 7 6 6 5
2 1 1 1 1 1 2 2 1 2 4 2 5 8 9 9 9 8 7 6 4 4 3 2 3 4 5 6 5 5 5 5 5 5 6 6 5 5 5 5 5 5 5 6 6 5 5 5 4
1 1 0 0 2 1 1 1 2 3 2 2 5 7 8 8 7 5 5 5 4 4 3 2 3 3 4 5 4 4 4 4 4 5 5 5 4 3 4 4 5 5 5 4 4 4 4 4 4
2 1 1 2 1 1 1 2 1 3 2 4 5 6 6 7 7 5 4 4 4 4 3 2 3 3 4 3 3 3 4 4 4 4 4 5 4 3 3 3 4 4 4 3 3 3 3 3 3
2 1 2 2 0 1 1 3 4 4 3 4 5 5 4 4 4 6 6 5 5 4 3 3 3 3 3 3 3 3 4 4 4 3 3 4 4 3 3 2 2 3 3 3 3 3 3 3 3
2 2 1 3 1 1 3 7 3 3 5 5 4 4 4 4 4 4 4 4 4 3 3 3 3 4 3 3 3 3 4 4 3 3 3 3 3 3 3 2 1 3 3 3 2 2 2 2 2
1 2 4 3 1 1 4 6 3 2 4 5 5 4 4 4 3 3 3 4 4 4 4 3 3 4 3 3 3 4 4 4 3 3 3 3 3 3 3 2 2 2 3 2 2 2 1 2 2
5 4 3 4 2 1 4 7 5 3 4 6 5 5 5 5 6 4 4 4 4 4 4 4 4 3 3 3 3 3 3 3 3 3 3 3 3 3 3 2 2 3 2 1 1 1 1 1 2
3 3 3 3 1 1 5 8 8 5 5 6 6 6 6 6 5 3 4 4 4 3 4 4 4 3 3 2 2 2 1 1 1 2 3 3 3 2 2 2 2 2 1 0 1 1 1 1 2
3 3 3 2 1 1 4 8 8 6 6 7 8 9 8 6 4 4 3 4 5 5 5 4 4 4 4 3 2 1 2 1 1 2 3 3 3 2 1 1 1 1 1 1 1 1 0 1 2
4 6 5 3 2 2 2 6 5 4 3 5 6 7 7 8 8 6 5 5 4 5 5 5 5 4 3 3 2 3 3 2 1 1 1 2 2 2 1 1 0 0 1 1 1 1 1 1 1
5 3 3 2 1 3 0 5 7 4 4 5 7 6 7 7 7 6 6 5 6 6 4 4 4 4 3 4 4 4 3 1 1 1 0 2 2 2 2 1 1 0 0 1 1 1 1 1 1
3 1 1 2 2 2 2 4 8 2 5 8 8 7 7 6 6 7 6 6 5 4 4 4 4 4 3 3 4 4 2 1 1 1 1 1 2 3 2 2 1 1 1 1 1 1 1 1 2
4 3 3 2 1 4 6 6 7 4 7 6 5 5 5 5 5 5 4 4 3 3 3 4 4 4 3 3 3 4 4 3 2 1 1 0 1 1 3 2 2 1 1 1 1 1 1 1 2
3 4 2 2 1 6 3 5 9 7 6 5 6 5 5 4 4 4 4 4 4 4 4 3 4 3 3 3 3 3 3 3 3 2 1 0 1 1 2 2 1 1 1 1 1 1 1 1 1
4 5 6 5 5 4 2 7 7 5 4 4 4 3 3 3 3 4 4 4 4 4 4 4 4 3 3 3 3 2 3 3 2 2 2 1 1 1 2 2 1 2 2 1 1 1 1 1 1
4 3 3 4 1 3 6 7 8 3 4 3 2 1 2 2 2 3 3 4 4 4 4 4 4 3 3 3 3 2 2 2 2 2 1 1 1 1 1 1 2 2 2 1 1 1 1 1 1
3 5 4 4 3 4 5 5 5 5 5 3 2 2 2 1 2 2 3 3 3 3 3 3 3 3 3 3 3 2 2 2 2 2 1 1 1 0 0 1 1 1 1 1 1 1 1 1 1
2 3 3 3 3 4 4 6 4 5 3 4 4 3 3 2 2 2 2 2 2 2 3 3 3 2 2 2 2 2 2 1 2 1 1 1 1 0 1 1 1 1 1 1 1 1 1 1 2
3 5 5 4 4 4 4 7 3 2 2 3 3 3 2 2 1 1 1 2 2 2 2 2 2 2 2 2 2 2 2 2 2 1 1 1 1 1 1 1 1 1 1 1 1 1 2 2 2
Wind_Direction
345 4 61 57 60 58 210 243 205 175 146 106 102 112 133 135 147 159 88 99 94 117 133 134 128 123 116 110 105 100 96 94 92 92 93 93 91 89 86 84 82 80 77 76 77 80 81 82 81
353 26 54 62 98 133 255 230 195 208 159 117 68 73 87 95 56 100 100 93 101 112 117 125 128 125 120 115 109 105 100 96 93 92 92 92 91 89 87 85 82 80 78 76 76 79 83 84 82
43 52 81 84 128 178 206 203 188 79 95 89 85 62 99 117 98 134 135 123 97 98 107 127 127 125 121 117 113 109 104 101 96 94 91 89 88 89 88 88 85 81 79 78 76 77 81 83 83
70 51 59 88 190 217 210 177 143 126 70 62 107 82 55 26 157 138 109 112 103 94 101 122 124 123 123 120 114 110 107 104 99 96 93 90 87 87 87 87 86 85 84 81 77 77 78 80 82
59 81 78 121 231 251 255 203 142 115 94 69 111 109 43 359 55 99 107 104 112 100 99 119 122 120 119 119 115 110 106 103 99 95 92 90 88 86 86 85 84 83 82 82 79 77 77 76 76
61 77 124 210 232 253 264 244 121 104 113 100 111 114 87 40 86 108 106 99 98 101 94 107 118 117 116 113 112 111 107 103 99 95 91 88 86 84 85 84 82 81 78 76 75 76 75 73 71
112 114 172 192 217 238 224 135 133 141 144 189 153 126 149 144 118 118 103 94 89 88 87 90 106 112 112 108 106 105 103 102 99 95 91 87 84 82 81 81 81 79 77 73 69 70 68 67 65
123 116 144 193 199 227 185 111 99 145 172 122 133 149 183 190 140 114 101 92 89 80 80 84 96 99 100 102 103 102 100 98 95 93 90 86 79 76 75 72 73 71 68 65 61 60 60 58 59
93 103 190 200 193 209 171 119 48 64 108 78 80 172 170 138 129 118 108 95 97 93 77 81 88 93 98 101 100 98 97 95 93 90 89 84 76 70 66 65 63 61 60 57 53 51 52 54 54
102 173 208 199 187 176 173 152 158 111 90 81 61 64 111 130 137 138 139 140 137 135 112 89 95 97 99 102 96 91 93 93 91 90 89 84 78 70 66 63 57 53 54 51 46 41 43 47 46
131 181 192 223 209 152 148 147 153 140 192 205 185 162 146 145 147 151 153 154 158 151 127 102 101 103 100 96 95 86 86 88 88 90 91 86 78 67 60 58 51 47 46 44 38 40 40 44 42
136 247 189 262 282 132 164 154 144 198 223 209 175 158 157 160 167 172 168 165 158 146 142 119 103 103 104 104 101 95 89 86 85 88 92 85 71 61 52 47 41 39 38 37 37 39 38 40 36
178 221 325 351 45 77 109 195 209 257 271 108 126 142 162 170 176 178 165 156 151 152 148 148 111 108 108 104 102 100 96 98 96 94 93 90 83 75 61 45 36 30 29 29 32 38 38 36 33
173 133 320 337 5 324 174 259 206 247 174 128 143 163 177 181 178 165 160 160 164 161 159 148 122 111 111 112 110 104 103 103 95 89 93 97 92 83 71 54 37 26 22 20 29 35 36 30 32
112 72 346 314 186 215 109 293 233 223 170 162 173 179 183 188 175 178 181 174 170 168 160 147 138 113 115 118 118 111 105 99 88 82 92 96 93 87 79 72 43 21 25 36 43 37 38 32 21
78 88 265 293 163 184 147 253 259 187 169 184 191 191 191 204 195 193 183 170 156 153 154 151 138 124 117 108 104 103 101 97 89 87 84 87 92 91 79 75 39 22 41 46 52 40 19 7 360
71 198 225 280 229 151 179 246 257 187 180 198 201 200 201 207 216 211 188 172 163 162 159 149 131 129 122 105 94 90 89 85 85 85 78 82 91 94 86 76 41 44 53 50 42 24 13 356 344
206 205 214 228 266 171 222 254 270 238 211 215 215 212 210 212 222 216 194 175 165 157 153 149 132 126 115 103 92 85 82 71 72 71 71 79 81 87 86 71 43 54 66 40 31 21 11 1 333
169 180 217 238 266 212 241 262 269 244 231 228 226 223 222 229 230 207 188 173 157 144 147 158 146 143 131 120 121 127 140 134 86 60 63 64 72 82 87 79 57 60 89 36 14 58 31 2 356
201 219 241 286 332 223 266 274 274 244 233 227 223 225 224 228 225 204 187 174 172 169 167 170 164 157 153 151 151 141 128 124 99 47 48 46 47 53 65 83 119 119 125 73 46 53 18 342 12
231 218 223 238 329 354 317 293 269 261 246 242 233 227 223 219 217 206 195 192 180 180 180 179 176 166 158 140 113 100 83 69 63 28 3 7 25 47 56 53 57 146 168 195 218 204 172 289 324
237 234 213 213 197 277 165 275 278 260 273 254 244 232 226 224 216 208 196 192 194 196 182 172 168 162 156 144 143 141 143 160 199 202 212 2 23 36 47 60 66 29 246 222 239 232 242 210 269
195 97 153 210 190 272 236 227 282 297 265 259 245 235 231 224 213 206 200 194 191 182 170 168 158 148 146 139 149 148 138 147 126 108 84 39 15 27 32 38 47 39 356 318 288 264 259 233 236
150 77 45 37 92 254 225 203 275 244 240 260 246 239 234 221 213 202 190 170 164 152 155 156 154 151 145 139 138 143 144 138 129 128 130 21 342 3 10 16 14 16 14 331 316 305 283 268 271
114 106 36 342 294 249 204 207 250 251 250 251 249 245 240 219 201 188 177 172 166 158 157 156 154 153 146 140 138 143 145 146 156 170 177 189 308 299 313 345 335 337 330 319 322 275 277 264 264
192 161 170 202 229 271 224 230 251 263 281 278 260 238 219 212 201 193 187 179 174 168 162 158 162 161 153 148 150 143 143 149 159 172 178 199 238 277 310 320 325 323 321 321 324 284 267 271 263
150 192 163 140 180 260 260 275 293 277 296 305 297 215 219 222 201 189 176 171 173 174 176 170 167 166 165 161 152 144 147 153 162 174 168 195 241 288 340 340 331 332 333 323 306 273 283 302 304
161 151 125 152 183 247 275 265 258 272 277 298 293 253 241 214 185 172 168 165 170 172 168 152 156 166 165 158 161 157 161 170 169 170 179 199 216 277 325 316 315 326 339 340 306 280 314 327 307
150 162 159 160 176 187 255 267 239 246 259 259 259 253 239 211 195 181 164 152 140 137 146 147 148 144 146 152 158 149 160 158 151 170 188 193 205 224 251 279 292 301 313 326 328 309 314 307 306
206 199 169 179 220 202 220 265 295 257 276 257 263 268 236 190 175 171 149 129 128 141 144 148 153 158 166 163 157 156 152 149 152 171 191 176 195 222 242 258 274 295 317 323 302 293 291 273 277
Height
1497 1498 1500 1502 1506 1517 1519 1514 1511 1510 1510 1510 1511 1512 1513 1517 1520 1525 1521 1521 1523 1525 1527 1529 1531 1532 1534 1535 1536 1537 1538 1538 1539 1540 1540 1541 1541 1542 1542 1543 1543 1543 1544 1544 1544 1544 1544 1544 1545
1497 1499 1501 1502 1512 1524 1519 1512 1510 1509 1509 1510 1511 1512 1513 1515 1517 1518 1519 1521 1523 1525 1527 1529 1531 1533 1534 1535 1537 1538 1538 1539 1540 1540 1541 1542 1542 1543 1543 1544 1544 1544 1545 1545 1545 1546 1546 1546 1546
1497 1498 1501 1505 1515 1518 1513 1508 1508 1508 1509 1510 1511 1513 1514 1516 1517 1518 1519 1521 1523 1526 1528 1529 1531 1533 1534 1536 1537 1538 1539 1540 1541 1541 1542 1542 1543 1544 1544 1544 1545 1545 1546 1546 1546 1547 1547 1547 1547
1497 1500 1502 1509 1512 1510 1507 1506 1506 1508 1509 1510 1511 1514 1515 1517 1517 1518 1520 1522 1524 1526 1528 1530 1532 1533 1535 1536 1537 1538 1540 1540 1541 1542 1542 1543 1544 1544 1545 1545 1545 1546 1546 1547 1547 1548 1548 1548 1548
1497 1499 1507 1513 1510 1508 1506 1505 1506 1507 1509 1510 1512 1514 1515 1517 1517 1518 1520 1522 1524 1526 1528 1530 1532 1533 1535 1536 1537 1538 1540 1541 1542 1542 1543 1543 1544 1545 1545 1546 1546 1546 1547 1547 1548 1548 1548 1549 1549
1497 1499 1512 1514 1509 1507 1505 1505 1506 1508 1509 1511 1512 1514 1516 1517 1518 1519 1521 1523 1525 1526 1528 1530 1532 1533 1535 1536 1537 1538 1540 1541 1542 1542 1543 1544 1544 1545 1545 1546 1546 1546 1547 1547 1548 1548 1549 1549 1549
1498 1503 1509 1510 1509 1507 1505 1505 1506 1507 1509 1511 1512 1514 1515 1517 1518 1520 1521 1523 1525 1527 1529 1530 1532 1533 1535 1536 1537 1539 1540 1541 1542 1543 1543 1544 1545 1545 1545 1546 1546 1547 1547 1547 1548 1548 1549 1549 1549
1496 1502 1508 1510 1508 1506 1505 1505 1506 1507 1508 1511 1512 1512 1514 1516 1517 1520 1522 1524 1525 1527 1529 1530 1532 1533 1535 1536 1537 1538 1539 1540 1541 1542 1543 1544 1544 1545 1545 1546 1546 1546 1547 1547 1548 1548 1548 1549 1549
1497 1505 1508 1507 1506 1504 1503 1505 1506 1507 1508 1509 1510 1511 1513 1515 1517 1519 1521 1523 1525 1526 1528 1529 1531 1533 1534 1535 1537 1538 1539 1540 1541 1542 1542 1543 1544 1544 1545 1545 1546 1546 1546 1547 1547 1548 1548 1548 1548
1497 1505 1502 1501 1501 1502 1503 1504 1505 1507 1508 1509 1510 1511 1512 1514 1516 1518 1519 1521 1523 1525 1527 1528 1530 1532 1533 1535 1536 1537 1538 1539 1540 1541 1542 1542 1543 1543 1544 1544 1545 1545 1546 1546 1546 1547 1547 1547 1548
1497 1500 1499 1499 1500 1501 1502 1503 1505 1506 1508 1507 1507 1509 1511 1513 1515 1517 1518 1520 1522 1524 1526 1527 1529 1531 1533 1534 1535 1536 1537 1538 1539 1540 1541 1541 1542 1542 1543 1543 1544 1544 1544 1545 1545 1545 1546 1546 1546
1498 1499 1499 1499 1500 1500 1502 1503 1504 1505 1505 1506 1507 1508 1510 1512 1514 1515 1517 1519 1521 1523 1525 1526 1528 1530 1531 1533 1534 1535 1536 1537 1538 1539 1539 1540 1540 1541 1541 1542 1542 1542 1543 1543 1543 1544 1544 1545 1545
1498 1499 1499 1500 1500 1500 1501 1502 1503 1504 1504 1505 1507 1508 1510 1511 1513 1515 1517 1519 1520 1522 1523 1525 1527 1528 1530 1532 1533 1534 1535 1536 1537 1537 1538 1539 1539 1539 1540 1540 1541 1541 1541 1541 1542 1542 1542 1543 1543
1497 1498 1499 1499 1499 1500 1501 1502 1503 1502 1504 1505 1506 1507 1509 1510 1512 1514 1515 1517 1519 1520 1522 1524 1525 1527 1529 1530 1531 1533 1534 1535 1535 1536 1537 1537 1538 1538 1538 1539 1539 1539 1539 1539 1540 1540 1540 1540 1541
1497 1499 1500 1499 1499 1500 1501 1502 1501 1501 1502 1503 1504 1506 1507 1509 1511 1512 1514 1516 1517 1519 1521 1522 1524 1526 1527 1528 1530 1531 1532 1533 1534 1535 1535 1536 1536 1536 1537 1537 1537 1538 1538 1538 1538 1538 1538 1538 1538
1498 1501 1504 1500 1499 1500 1504 1502 1500 1500 1501 1501 1503 1504 1506 1507 1509 1511 1513 1514 1516 1518 1519 1521 1523 1524 1525 1527 1528 1529 1530 1531 1532 1533 1533 1534 1534 1535 1535 1535 1535 1535 1536 1536 1536 1535 1535 1535 1535
1502 1505 1504 1502 1499 1500 1502 1501 1499 1499 1499 1500 1501 1502 1504 1505 1507 1509 1511 1512 1514 1516 1518 1519 1521 1522 1524 1525 1526 1527 1528 1529 1530 1531 1531 1532 1532 1533 1533 1533 1533 1533 1533 1533 1533 1533 1533 1532 1532
1503 1504 1503 1503 1500 1501 1502 1500 1498 1498 1498 1498 1499 1500 1501 1502 1504 1506 1508 1510 1512 1514 1515 1517 1519 1520 1522 1523 1524 1525 1526 1527 1528 1529 1529 1530 1530 1530 1531 1531 1531 1531 1531 1531 1531 1531 1531 1530 1530
1499 1502 1503 1502 1500 1501 1501 1499 1496 1496 1497 1497 1497 1498 1498 1500 1502 1504 1505 1507 1509 1510 1513 1515 1517 1518 1519 1520 1521 1523 1524 1525 1526 1526 1526 1527 1528 1528 1528 1529 1529 1529 1529 1529 1529 1529 1528 1528 1528
1499 1501 1503 1502 1501 1501 1502 1499 1494 1493 1493 1492 1493 1494 1495 1497 1499 1500 1502 1504 1506 1507 1510 1512 1514 1515 1517 1518 1520 1521 1521 1522 1523 1524 1524 1525 1525 1525 1526 1526 1526 1526 1526 1526 1526 1526 1526 1526 1526
1499 1501 1502 1503 1502 1502 1502 1498 1493 1490 1489 1489 1489 1490 1491 1493 1494 1496 1499 1501 1503 1505 1507 1509 1511 1513 1514 1516 1517 1518 1519 1520 1521 1521 1521 1522 1522 1523 1523 1523 1524 1523 1524 1523 1523 1523 1523 1523 1523
1499 1498 1499 1501 1504 1507 1506 1505 1492 1490 1488 1486 1486 1486 1487 1489 1491 1493 1495 1497 1499 1502 1504 1506 1508 1510 1512 1513 1514 1515 1516 1517 1518 1518 1519 1519 1519 1520 1520 1521 1521 1521 1521 1521 1521 1521 1521 1521 1520
1498 1498 1500 1502 1505 1509 1508 1509 1495 1490 1487 1483 1482 1482 1483 1485 1487 1489 1491 1494 1496 1499 1501 1503 1505 1507 1509 1510 1511 1512 1513 1514 1515 1516 1516 1517 1517 1517 1517 1518 1518 1518 1518 1517 1517 1517 1518 1517 1517
1497 1500 1503 1507 1508 1509 1506 1508 1496 1491 1483 1479 1478 1479 1480 1481 1483 1486 1488 1491 1493 1495 1497 1500 1502 1504 1506 1507 1508 1509 1510 1511 1512 1513 1513 1514 1514 1514 1514 1514 1514 1514 1514 1514 1514 1514 1514 1514 1514
1497 1504 1512 1512 1516 1510 1505 1505 1493 1481 1479 1477 1477 1477 1477 1479 1480 1482 1485 1487 1489 1491 1494 1496 1498 1500 1502 1504 1505 1506 1507 1508 1509 1509 1510 1511 1511 1511 1511 1511 1511 1511 1511 1511 1510 1510 1511 1511 1510
1498 1499 1509 1512 1514 1510 1506 1502 1486 1478 1477 1475 1475 1475 1475 1476 1477 1479 1481 1484 1486 1488 1491 1493 1495 1497 1499 1500 1502 1503 1504 1505 1506 1506 1507 1507 1508 1508 1508 1508 1508 1507 1507 1507 1507 1507 1506 1506 1507
1498 1500 1502 1510 1514 1511 1503 1495 1484 1476 1475 1474 1473 1473 1473 1474 1475 1477 1479 1481 1484 1486 1488 1490 1492 1494 1496 1497 1499 1500 1501 1502 1502 1503 1504 1504 1504 1504 1504 1504 1504 1504 1504 1503 1503 1503 1502 1503 1503
1495 1498 1505 1507 1507 1503 1497 1495 1486 1477 1474 1473 1473 1472 1472 1473 1474 1475 1477 1479 1482 1484 1486 1487 1489 1491 1493 1494 1495 1496 1497 1498 1499 1500 1500 1500 1501 1501 1501 1501 1501 1500 1500 1500 1500 1499 1499 1499 1499
1497 1499 1499 1503 1504 1504 1501 1489 1477 1475 1473 1473 1472 1471 1471 1472 1473 1474 1476 1478 1480 1482 1483 1485 1487 1488 1490 1491 1492 1493 1494 1495 1496 1496 1497 1497 1497 1497 1497 1497 1497 1497 1496 1496 1496 1496 1496 1495 1495
1494 1494 1497 1500 1503 1506 1504 1491 1475 1474 1472 1472 1471 1470 1470 1471 1472 1474 1475 1477 1478 1480 1481 1483 1484 1486 1487 1488 1489 1490 1491 1491 1492 1493 1493 1493 1493 1493 1493 1493 1493 1493 1493 1492 1492 1492 1492 1492 1492